Location: Akgöl Batakl???
(38.9482°N, 31.8837°E)
Time: 12:32:31
(UTC+00:00)

Okean 3 Rocket - Pass Details

Date: 08 May 2026
Orbit: 610 x 637 km, 82.5° (Epoch: 8 June)

Event Time Altitude Azimuth Distance (km) Brightness Sun altitude
Rises 23:30:34 0° 353° (N) 2,941 7.8 -28.9°
Reaches altitude 10° 23:32:49 10° 355° (N) 2,030 6.9 -28.7°
Enters shadow 23:36:08 49° 3° (N) 828 4.4 -28.4°
